[[{"header":{"parameterUnit":"m.s-1","parameterCategory":1,"la1":30.2991,"la2":30.254,"lo1":-89.0895,"lo2":-89.0444,"dy":0.0017,"dx":0.0017,"nx":28,"ny":28,"refTime":"2024-07-28T21:00:00:Z","depth":0,"parameterNumber":2,"parameterNumberName":"U-component_of_WINDS"},"data":[0,0,0,0,0,0,0,0,0,0,0,0,0,0,0,0,0,0,0,0,0,0,0,0,0,0,0,0,0,0,0,0,0,0,0,0,0,0,0,0,0,0,0,0,0,0,0,0,0,0,0,0,0,0,0,0,0,0,5.3473,5.3474,0,5.3569,5.357,5.3571,5.3459,5.3454,5.345,5.3446,5.3548,5.3555,5.3562,0,0,0,0,0,0,0,0,0,0,0,0,0,5.3194,5.32,5.3473,5.3474,5.3475,5.3569,5.357,5.3571,5.3459,5.3454,5.3449,5.3444,5.3546,5.3554,5.3562,0,0,0,0,0,0,0,0,0,0,0,0,0,5.3305,5.3202,5.3473,5.3431,5.3428,5.3568,5.357,5.3572,5.346,5.3454,5.3448,5.3442,5.3544,5.3553,5.3563,5.3751,0,0,5.3594,5.3598,0,0,0,0,0,0,0,0,5.3299,5.3316,5.3436,5.3434,5.3431,5.3495,5.3509,5.3632,5.3462,5.3448,5.3446,5.3439,5.3536,5.3546,5.3578,5.3756,5.376,5.3595,5.3601,5.3605,5.3608,0,0,0,0,0,0,0,5.3292,5.3311,5.3511,5.3437,5.3435,5.3407,5.3416,5.3532,5.3527,5.3449,5.3441,5.3454,5.3534,5.3569,5.358,5.3762,5.3594,5.3603,5.3609,5.3613,5.4094,5.41,0,0,0,0,0,0,5.3288,5.3305,5.3508,5.3514,5.3348,5.3417,5.3427,5.3481,5.3525,5.3525,5.3459,5.3448,5.3555,5.3568,5.3583,5.3802,5.3605,5.3614,5.362,5.4087,5.4095,5.4103,0,0,0,0,0,0,5.3283,5.3308,5.3504,5.3407,5.343,5.3429,5.349,5.3486,5.3521,5.3532,5.3531,5.3496,5.3551,5.3569,5.3709,5.3804,5.3619,5.3628,5.4079,5.409,5.4099,5.4245,0,0,0,0,0,0,5.3275,5.3306,5.3378,5.341,5.3436,5.3628,5.3496,5.3493,5.3538,5.3525,5.3567,5.3568,5.3547,5.3695,5.3719,5.3815,5.3636,5.4071,5.4084,5.4096,5.4231,5.4259,5.4282,0,0,0,0,0,5.3266,5.3417,5.3382,5.3407,5.3525,5.3634,5.3649,5.3621,5.3547,5.3618,5.3624,5.3566,5.3791,5.371,5.3736,5.3837,5.4064,5.408,5.4095,5.422,5.4253,5.4281,0,0,0,0,0,0,5.3398,5.342,5.3382,5.3547,5.3589,5.3615,5.3704,5.3658,5.3723,5.3708,5.3672,5.3682,5.383,5.3848,5.3757,5.4019,5.3915,5.3936,5.4001,5.4033,5.4058,5.4049,5.3644,0,0,0,0,0,5.3446,5.3532,5.3547,5.3692,5.3715,5.3706,5.3753,5.3727,5.377,5.3787,5.3804,5.3849,5.3928,5.3982,5.4057,5.4234,5.424,5.4316,5.4341,5.4362,5.438,5.4471,5.4504,5.4153,5.4153,5.4152,0,0,5.3547,5.357,5.3627,5.3719,5.3748,5.3838,5.3722,5.3823,5.3888,5.3803,5.3934,5.3949,5.3996,5.4154,5.4225,5.4173,5.4478,5.4381,5.4398,5.4405,5.449,5.4523,5.4553,5.4163,5.4161,5.416,0,0,5.3775,5.3803,5.3924,5.3955,5.4,5.3993,5.4022,5.4054,5.4059,5.419,5.4127,5.4205,5.4345,5.438,5.4416,5.4654,5.4602,5.468,5.4811,5.4901,5.4928,5.4952,5.5034,5.5064,5.4699,5.4699,5.4699,0,5.3895,5.4026,5.3992,5.4096,5.4137,5.4062,5.4184,5.4217,5.4285,5.4315,5.4257,5.4427,5.4454,5.4617,5.4675,5.4708,5.4738,5.4674,5.4927,5.4951,5.4973,5.505,5.5082,5.4708,5.4707,5.4706,5.4705,0,5.4169,5.4262,5.4354,5.4419,5.4471,5.4584,5.4566,5.4624,5.4593,5.4592,5.4725,5.4754,5.4831,5.4869,5.4842,5.5028,5.4994,5.4932,5.4827,5.5016,5.5088,5.5117,5.4721,5.4717,5.4715,5.4712,0,0,5.4484,5.4526,5.456,5.4587,5.463,5.4701,5.481,5.4883,5.4931,5.4981,5.5069,5.5187,5.5129,5.517,5.5146,5.5225,5.5407,5.5152,5.5153,5.5196,5.561,5.5653,5.5689,5.5373,5.5379,5.5384,5.5604,0,5.471,5.4896,5.4867,5.5047,5.5129,5.5058,5.5152,5.5189,5.5191,5.5262,5.5264,5.5346,5.5265,5.5289,5.5364,5.5369,5.5489,5.5353,5.5454,5.5458,5.5441,5.5727,5.5774,5.5981,5.5633,5.5637,5.5641,0,5.4998,5.5055,5.5242,5.5268,5.5302,5.5387,5.545,5.5519,5.5559,5.5554,5.5598,5.5559,5.5666,5.5561,5.5707,5.5615,5.5655,5.5664,5.5671,5.5677,5.5559,5.5738,5.6047,5.6077,5.5686,5.5682,5.5679,0,5.5204,5.5328,5.5454,5.548,5.5515,5.5576,5.5594,5.5627,5.5671,5.5727,5.5755,5.5824,5.5861,5.5915,5.5895,5.582,5.6044,5.5938,5.6042,5.6042,5.609,5.6087,5.6407,5.6122,5.6121,5.6121,5.612,0,5.5458,5.5574,5.5546,5.5624,5.5752,5.5718,5.5845,5.5855,5.5884,5.5962,5.5906,5.5981,5.5951,5.6023,5.6009,5.613,5.6148,5.6146,5.614,5.615,5.6149,5.6173,5.6157,5.6129,5.6127,5.6125,5.6124,0,5.5709,5.5695,5.5828,5.5849,5.5857,5.595,5.5968,5.6041,5.6037,5.6136,5.6157,5.6152,5.6234,5.6219,5.6312,5.6301,5.6452,5.643,5.6438,5.6431,5.6535,5.6524,5.6879,5.6922,5.6612,5.6615,5.6617,0,5.587,5.5957,5.5987,5.6034,5.6055,5.6133,5.6177,5.6147,5.6195,5.6245,5.6311,5.6387,5.6446,5.658,5.6585,5.6654,5.6631,5.6751,5.6641,5.6646,5.6629,5.6622,5.6629,5.6772,5.6776,5.6779,5.6781,0,5.6156,5.6144,5.6209,5.6272,5.6326,5.6374,5.6417,5.6459,5.6433,5.649,5.6572,5.6617,5.6709,5.6784,5.6848,5.6866,5.6819,5.6815,5.6842,5.6851,5.685,5.6848,5.6493,5.6807,5.6804,5.6802,5.6801,5.68,5.6364,5.6437,5.6468,5.6542,5.657,5.6611,5.6679,5.6682,5.675,5.682,5.6799,5.6891,5.6925,5.7005,5.7031,5.7102,5.7057,5.7098,5.7107,5.7117,5.7127,5.6841,5.7114,5.7113,5.7113,5.7112,5.7111,0,5.6644,5.666,5.6728,5.6788,5.6846,5.6795,5.684,5.6891,5.6972,5.7008,5.7066,5.7159,5.7231,5.7241,5.7309,5.7364,5.7344,5.7383,5.7377,5.7381,5.7165,5.7133,5.7397,5.7397,5.7397,5.7397,5.7397,5.7397,5.6796,5.6915,5.6907,5.7038,5.7054,5.7142,5.7171,5.7208,5.7235,5.734,5.7399,5.7404,5.7429,5.7498,5.7561,5.7562,5.7588,5.7635,5.7628,5.7425,5.7397,5.7369,5.7339,5.7642,5.7642,5.7837,5.7838,5.784]},{"header":{"parameterUnit":"m.s-1","parameterCategory":1,"la1":30.2991,"la2":30.254,"lo1":-89.0895,"lo2":-89.0444,"dy":0.0017,"dx":0.0017,"nx":28,"ny":28,"refTime":"2024-07-28T21:00:00:Z","depth":0,"parameterNumber":3,"parameterNumberName":"V-component_of_WINDS"},"data":[0,0,0,0,0,0,0,0,0,0,0,0,0,0,0,0,0,0,0,0,0,0,0,0,0,0,0,0,0,0,0,0,0,0,0,0,0,0,0,0,0,0,0,0,0,0,0,0,0,0,0,0,0,0,0,0,0,0,2.9916,2.9917,0,2.9987,2.9988,2.9989,2.9976,2.9974,2.9973,2.9972,3.0042,3.0045,3.0048,0,0,0,0,0,0,0,0,0,0,0,0,0,2.9763,2.9766,2.9916,2.9917,2.9918,2.9987,2.9988,2.9989,2.9976,2.9974,2.9973,2.9971,3.0041,3.0044,3.0048,0,0,0,0,0,0,0,0,0,0,0,0,0,2.9832,2.9767,2.9916,2.9919,2.9921,2.9987,2.9988,2.9989,2.9976,2.9974,2.9972,2.9971,3.004,3.0044,3.0049,3.0115,0,0,3.0062,3.0064,0,0,0,0,0,0,0,0,2.9828,2.9837,2.9918,2.9919,2.9921,2.9971,2.996,3.0031,2.9977,2.9955,2.9972,2.997,3.0019,3.0026,3.0043,3.0118,3.0121,3.0063,3.0066,3.0068,3.0069,0,0,0,0,0,0,0,2.9823,2.9834,2.9944,2.9919,2.9921,2.9916,2.9924,2.9973,2.9997,2.9957,2.9956,2.9965,3.002,3.0039,3.0045,3.0122,3.0063,3.0067,3.007,3.0071,3.0252,3.0254,0,0,0,0,0,0,2.9818,2.983,2.9942,2.9946,2.9869,2.992,2.9929,2.9956,2.9996,3.0001,2.9966,2.9964,3.0032,3.0039,3.0047,3.0125,3.0068,3.0072,3.0074,3.025,3.0252,3.0254,0,0,0,0,0,0,2.9814,2.9828,2.9939,2.9888,2.9902,2.9925,2.9956,2.9959,2.9978,3.0004,3.0007,2.9982,3.0031,3.0041,3.0097,3.0127,3.0074,3.0078,3.0247,3.025,3.0253,3.0283,0,0,0,0,0,0,2.981,2.9827,2.9853,2.9889,2.9905,2.999,2.9958,2.9962,2.9986,2.9984,3.0019,3.0023,3.003,3.0091,3.0102,3.0133,3.0082,3.0245,3.0249,3.0252,3.028,3.0287,3.0293,0,0,0,0,0,2.9805,2.9859,2.9855,2.9868,2.9938,2.9992,3.0,3.0008,2.9989,3.0014,3.0031,3.0022,3.0123,3.0097,3.0109,3.0142,3.0243,3.0247,3.0252,3.0277,3.0286,3.0293,0,0,0,0,0,0,2.9825,2.9863,2.9859,2.9927,2.9956,2.9989,3.0022,3.0018,3.0053,3.0049,3.0056,3.0064,3.0121,3.0137,3.0108,3.0206,3.018,3.0187,3.0194,3.0203,3.0209,3.0204,3.0085,0,0,0,0,0,2.9838,2.9879,2.991,2.9966,2.9981,2.9999,3.0023,3.0026,3.0056,3.0068,3.0089,3.0117,3.0155,3.018,3.0216,3.0282,3.0288,3.031,3.0317,3.0323,3.0328,3.0362,3.0372,3.027,3.0269,3.0269,0,0,2.9864,2.989,2.9915,2.9971,2.9994,3.0035,3.001,3.0054,3.0084,3.0075,3.013,3.0145,3.0178,3.0239,3.0267,3.0254,3.0358,3.0328,3.0333,3.0336,3.0368,3.0377,3.0386,3.0273,3.0272,3.0272,0,0,2.9932,2.9957,3.0005,3.0029,3.0064,3.0076,3.0087,3.0121,3.0131,3.0187,3.018,3.0215,3.028,3.0303,3.0323,3.0398,3.039,3.0409,3.0444,3.0477,3.0485,3.0492,3.0517,3.0526,3.0415,3.0415,3.0415,0,2.9959,3.0022,3.0031,3.0076,3.0099,3.0093,3.0141,3.0163,3.0208,3.0224,3.0209,3.029,3.0312,3.0377,3.0395,3.0412,3.0424,3.0405,3.0484,3.0491,3.0497,3.0521,3.0531,3.0417,3.0417,3.0417,3.0417,0,3.0053,3.0096,3.0131,3.0175,3.0203,3.0249,3.0263,3.029,3.029,3.0303,3.0358,3.0383,3.0424,3.0439,3.0441,3.0504,3.0495,3.0482,3.0455,3.0509,3.0531,3.0541,3.042,3.042,3.0419,3.0418,0,0,3.0137,3.0184,3.0197,3.0216,3.0254,3.0286,3.0332,3.0372,3.0394,3.0425,3.0461,3.0516,3.0504,3.0526,3.053,3.0559,3.0614,3.0542,3.0542,3.0553,3.0683,3.0692,3.0702,3.0609,3.0611,3.0612,3.068,0,3.0207,3.0288,3.0296,3.0368,3.0406,3.04,3.0439,3.0466,3.0478,3.0512,3.0525,3.0563,3.0545,3.0558,3.0587,3.0601,3.064,3.0596,3.0641,3.0643,3.0632,3.0714,3.0724,3.0787,3.0689,3.069,3.0691,0,3.03,3.0334,3.041,3.044,3.0457,3.0492,3.0528,3.0561,3.059,3.0597,3.0622,3.0621,3.0665,3.0637,3.0697,3.0667,3.0686,3.0695,3.0698,3.0702,3.067,3.0718,3.0807,3.0816,3.0705,3.0704,3.0703,0,3.0351,3.0415,3.0469,3.0485,3.0523,3.0548,3.0564,3.0592,3.0615,3.0646,3.0661,3.0697,3.0716,3.0743,3.0751,3.073,3.081,3.0783,3.0815,3.0815,3.0831,3.083,3.0923,3.0846,3.0846,3.0845,3.0845,0,3.0428,3.0474,3.0492,3.0524,3.0575,3.0583,3.0632,3.0648,3.0672,3.0705,3.0702,3.0734,3.0743,3.0776,3.0782,3.083,3.0839,3.0844,3.0845,3.0844,3.0843,3.0855,3.085,3.0848,3.0847,3.0847,3.0846,0,3.0493,3.0507,3.0564,3.0595,3.0604,3.064,3.0666,3.0696,3.0707,3.075,3.0761,3.0778,3.0817,3.0827,3.0873,3.0877,3.0932,3.093,3.0923,3.0922,3.0953,3.095,3.1056,3.1069,3.0985,3.0986,3.0987,0,3.054,3.0576,3.061,3.0633,3.0651,3.0688,3.0712,3.0721,3.0745,3.078,3.0805,3.0843,3.0874,3.0934,3.095,3.0985,3.0982,3.1017,3.0987,3.0984,3.098,3.0978,3.098,3.1022,3.1023,3.1024,3.1024,0,3.0623,3.0628,3.0662,3.0699,3.0727,3.0756,3.0784,3.0803,3.0815,3.0842,3.0882,3.0905,3.0952,3.0989,3.1023,3.1038,3.1033,3.1034,3.1043,3.1041,3.1035,3.1037,3.0937,3.1031,3.103,3.103,3.1029,3.1029,3.0679,3.071,3.0738,3.0776,3.0798,3.0824,3.0854,3.0869,3.0902,3.0941,3.0944,3.0986,3.1012,3.1058,3.1075,3.1107,3.1096,3.111,3.1113,3.1116,3.1117,3.1031,3.1113,3.1113,3.1113,3.1113,3.1113,0,3.076,3.0778,3.0813,3.0852,3.0881,3.0875,3.0905,3.0929,3.0967,3.0992,3.1022,3.1066,3.1102,3.112,3.1155,3.1176,3.1175,3.1185,3.1183,3.1186,3.1126,3.1114,3.1186,3.1186,3.1186,3.1186,3.1186,3.1186,3.0805,3.0855,3.0863,3.0924,3.0941,3.0983,3.1,3.1023,3.1043,3.1093,3.1123,3.1135,3.1157,3.1193,3.1224,3.1228,3.124,3.1252,3.1255,3.1198,3.119,3.1183,3.1172,3.1255,3.1255,3.1312,3.1313,3.1313]}]]